User: anonymous   Login
Location: Unspecified
(0.0000°N, 0.0000°E)
Time: 01:04:34
(UTC+00:00)
Language:

WGS F3 (USA 211) - Orbit

View from above orbital plane
View from above orbital plane
View from above satellite
View from above satellite

Ground track
Ground track

The orbit data is extracted from the following two-line orbital elements,

1 36108U 09068A   20059.52149382 -.00000098  00000-0  00000+0 0  9998
2 36108   0.0235 127.9490 0000448 153.9158  51.6628  1.00270270 37445
Epoch (UTC): 28 February 2020 12:30:57
Eccentricity: 0.0000448
inclination: 0.0235°
perigee height: 35785 km
apogee height: 35788 km
right ascension of ascending node: 127.9490°
argument of perigee: 153.9158°
revolutions per day: 1.00270270
mean anomaly at epoch: 51.6628°
orbit number at epoch: 3744

The dashed part of the orbit path shows where the satellite is in the earth's shadow,  

DLR